STARLINK-1912 (47178 NORAD) Tracking and Keplerian Element Data

This shows tracking and keplerian element data for the satellite.

Feedback or suggestion? Click here.




ElementValue
Catalog47178
NameSTARLINK-1912
Epoch Orbit175
Epoch Day62.91667824
Epoch Year2021
RAAN244.7961
Inclination53.0469
Eccentricity0.0002255
Argument of Perigee88.2826
Mean Anonmoly289.7211
Mean Motion15.06388632
Decay Rate0.0002883
L11 47178U 20088BJ 21062.91667824 .00028830 00000-0 19470-2 0 9993
L22 47178 53.0469 244.7961 0002255 88.2826 289.7211 15.06388632 1752

Live tracking and technical data element details for STARLINK-1912 (NORAD 47178). STARLINK-1912 can be tracked NOW for your location showing map with azimuth and elevation plus other details from your city location.

Track the satellite on the map from your city or location and see movement details for azimuth, elevation, latitude, longitude, range, height, and movement on the map or in text.







IsCatalogInMostPopularTable: catalog: 47178, numindb: 39
Update: records affected: 1



GetName: 47178 STARLINK-1912

Hit Count: updated at: Fri, 05 Mar 2021 07:27:19 GMT